Location: Blandford
(50.8667°N, 2.1667°W)
Time: 01:28:23
(UTC+00:00)

Cosmos 2058 Rocket - Pass Details

Date: 09 April 2020
Orbit: 610 x 640 km, 82.5° (Epoch: 30 May)

Event Time Altitude Azimuth Distance (km) Brightness Sun altitude
Rises 20:31:15 0° 200° (SSW) 2,934 6.4 -14.7°
Reaches altitude 10° 20:33:32 10° 205° (SSW) 2,029 5.6 -15.0°
Maximum altitude 20:37:57 56° 284° (WNW) 764 3.8 -15.6°
Drops below altitude 10° 20:42:25 10° 3° (N) 2,037 6.1 -16.1°
Sets 20:44:42 0° 8° (N) 2,947 6.9 -16.4°
